[[{"header":{"parameterUnit":"m.s-1","parameterCategory":1,"la1":30.2991,"la2":30.254,"lo1":-89.0895,"lo2":-89.0444,"dy":0.0017,"dx":0.0017,"nx":28,"ny":28,"refTime":"2024-06-30T21:00:00:Z","depth":0,"parameterNumber":2,"parameterNumberName":"U-component_of_WINDS"},"data":[0,0,0,0,0,0,0,0,0,0,0,0,0,0,0,0,0,0,0,0,0,0,0,0,0,0,0,0,0,0,0,0,0,0,0,0,0,0,0,0,0,0,0,0,0,0,0,0,0,0,0,0,0,0,0,0,0,0,2.4183,2.4185,0,2.438,2.4383,2.4385,2.4471,2.447,2.447,2.447,2.4663,2.4668,2.4673,0,0,0,0,0,0,0,0,0,0,0,0,0,2.3874,2.3879,2.4183,2.4186,2.4188,2.438,2.4383,2.4385,2.4471,2.447,2.447,2.447,2.4661,2.4667,2.4674,0,0,0,0,0,0,0,0,0,0,0,0,0,2.4033,2.3881,2.4183,2.4254,2.4262,2.438,2.4383,2.4386,2.4471,2.447,2.447,2.4469,2.4659,2.4667,2.4675,2.4733,0,0,2.47,2.4703,0,0,0,0,0,0,0,0,2.4024,2.4044,2.4241,2.4249,2.4259,2.4401,2.4345,2.4502,2.4471,2.4391,2.447,2.4469,2.4575,2.459,2.4628,2.4742,2.475,2.47,2.4705,2.4709,2.4711,0,0,0,0,0,0,0,2.4013,2.4036,2.4261,2.4244,2.4255,2.4274,2.4296,2.4375,2.4483,2.4398,2.4405,2.4428,2.458,2.462,2.4633,2.4753,2.47,2.4707,2.4712,2.4715,2.4928,2.4928,0,0,0,0,0,0,2.3991,2.4026,2.4255,2.4267,2.4138,2.428,2.4305,2.4355,2.4482,2.4502,2.4428,2.4431,2.4606,2.4623,2.464,2.4719,2.4709,2.4716,2.4721,2.4927,2.4928,2.4929,0,0,0,0,0,0,2.3984,2.4011,2.4247,2.4149,2.418,2.4286,2.4342,2.4359,2.44,2.4505,2.4524,2.4449,2.4607,2.4629,2.4711,2.4726,2.472,2.4727,2.4926,2.4927,2.4928,2.4874,0,0,0,0,0,0,2.3975,2.4008,2.4032,2.4149,2.4185,2.4315,2.4343,2.4364,2.4414,2.442,2.453,2.4547,2.4608,2.4698,2.4719,2.4737,2.4734,2.4925,2.4927,2.4928,2.4875,2.4873,2.4872,0,0,0,0,0,2.3963,2.4006,2.4033,2.406,2.4219,2.4316,2.4337,2.4408,2.4415,2.444,2.4508,2.4544,2.4721,2.4706,2.473,2.4751,2.4924,2.4926,2.4928,2.4875,2.4874,2.4872,0,0,0,0,0,0,2.3885,2.4023,2.4054,2.4136,2.4214,2.433,2.4364,2.4403,2.4478,2.448,2.4563,2.4587,2.4662,2.4715,2.4695,2.4815,2.4826,2.4832,2.4778,2.4777,2.4775,2.4761,2.474,0,0,0,0,0,2.3878,2.3948,2.4064,2.4125,2.4164,2.4257,2.4302,2.4351,2.4434,2.4466,2.454,2.4617,2.4691,2.4737,2.481,2.4883,2.4909,2.491,2.4908,2.4907,2.4911,2.4955,2.4957,2.4934,2.4934,2.4934,0,0,2.3862,2.3947,2.3985,2.4112,2.4178,2.4248,2.4284,2.4355,2.4407,2.4476,2.4559,2.4616,2.4707,2.4786,2.4824,2.4832,2.4923,2.4909,2.4907,2.4912,2.4957,2.4959,2.4961,2.4936,2.4935,2.4935,0,0,2.3871,2.3941,2.4002,2.4069,2.417,2.4233,2.4247,2.4358,2.44,2.4485,2.454,2.4601,2.4725,2.4789,2.4837,2.4873,2.4909,2.4894,2.4886,2.4928,2.493,2.4932,2.4945,2.4949,2.4899,2.4899,2.4898,0,2.3838,2.3947,2.4027,2.4097,2.4151,2.4221,2.4282,2.4342,2.446,2.4495,2.4503,2.4663,2.4729,2.4824,2.4833,2.487,2.4888,2.4882,2.4924,2.4926,2.4929,2.4943,2.4948,2.4896,2.4896,2.4897,2.4897,0,2.3902,2.3977,2.4013,2.4131,2.4189,2.4253,2.4341,2.439,2.4434,2.4495,2.4582,2.4664,2.4757,2.4783,2.4825,2.4885,2.4887,2.4908,2.492,2.4928,2.4942,2.4948,2.4893,2.4894,2.4894,2.4895,0,0,2.3864,2.4028,2.4039,2.4095,2.4213,2.4271,2.4339,2.4433,2.4473,2.4553,2.4612,2.4717,2.4739,2.4794,2.4844,2.4881,2.4905,2.4899,2.4902,2.4897,2.4977,2.496,2.4964,2.4931,2.4932,2.4933,2.4969,0,2.3888,2.4016,2.4091,2.4187,2.4258,2.4327,2.4386,2.4464,2.4523,2.459,2.4655,2.4729,2.4751,2.4785,2.4825,2.4894,2.4922,2.4892,2.4984,2.4987,2.4959,2.4972,2.4954,2.4984,2.4975,2.4976,2.4977,0,2.3933,2.4016,2.412,2.4234,2.4266,2.4318,2.4411,2.4475,2.4565,2.4605,2.4669,2.472,2.4793,2.4801,2.4902,2.488,2.4923,2.4962,2.4965,2.4975,2.4982,2.4982,2.4995,2.4999,2.4986,2.4986,2.4985,0,2.3895,2.4033,2.4114,2.4159,2.4292,2.4328,2.4384,2.4475,2.4527,2.4607,2.4642,2.4729,2.4776,2.4841,2.4914,2.4913,2.5008,2.5022,2.5043,2.5041,2.5059,2.5057,2.5078,2.5087,2.5086,2.5086,2.5086,0,2.3915,2.3975,2.4099,2.4149,2.4219,2.4305,2.4371,2.4433,2.4513,2.4575,2.4639,2.4695,2.4788,2.4855,2.4913,2.4989,2.5009,2.5043,2.5057,2.5037,2.5033,2.5065,2.5065,2.5088,2.5087,2.5087,2.5087,0,2.3884,2.3969,2.4062,2.4183,2.4215,2.4261,2.4364,2.4414,2.4478,2.4555,2.4578,2.4677,2.476,2.484,2.4949,2.4988,2.5064,2.5083,2.5034,2.5042,2.5059,2.5056,2.5102,2.5112,2.5113,2.5113,2.5113,0,2.389,2.3939,2.4067,2.4115,2.4171,2.4247,2.4302,2.4388,2.4442,2.455,2.4587,2.4675,2.475,2.4879,2.4959,2.5044,2.5066,2.5076,2.5078,2.5057,2.5066,2.5062,2.5068,2.5073,2.5073,2.5072,2.5072,0,2.3892,2.3933,2.4012,2.4106,2.4171,2.4248,2.4327,2.4362,2.4462,2.452,2.4607,2.4666,2.4781,2.4867,2.4962,2.5018,2.5061,2.5071,2.5081,2.506,2.503,2.5047,2.5029,2.5069,2.5069,2.507,2.507,2.507,2.3881,2.3929,2.4027,2.4113,2.4182,2.4256,2.431,2.4382,2.4458,2.456,2.4605,2.4693,2.4783,2.4916,2.4972,2.5041,2.5051,2.5065,2.5068,2.507,2.5066,2.502,2.5058,2.5059,2.5059,2.5059,2.5059,0,2.3887,2.3955,2.4033,2.4144,2.4211,2.4251,2.4341,2.4393,2.4471,2.4553,2.4628,2.4728,2.4814,2.4902,2.4992,2.503,2.5053,2.5051,2.5049,2.5061,2.5051,2.5034,2.5032,2.5032,2.5032,2.5032,2.5032,2.5032,2.3898,2.3982,2.4035,2.4153,2.422,2.431,2.4358,2.4426,2.4492,2.4603,2.4675,2.4734,2.4819,2.4916,2.4995,2.5019,2.5049,2.5042,2.5071,2.506,2.5061,2.5063,2.5048,2.5048,2.5048,2.5075,2.5075,2.5076]},{"header":{"parameterUnit":"m.s-1","parameterCategory":1,"la1":30.2991,"la2":30.254,"lo1":-89.0895,"lo2":-89.0444,"dy":0.0017,"dx":0.0017,"nx":28,"ny":28,"refTime":"2024-06-30T21:00:00:Z","depth":0,"parameterNumber":3,"parameterNumberName":"V-component_of_WINDS"},"data":[0,0,0,0,0,0,0,0,0,0,0,0,0,0,0,0,0,0,0,0,0,0,0,0,0,0,0,0,0,0,0,0,0,0,0,0,0,0,0,0,0,0,0,0,0,0,0,0,0,0,0,0,0,0,0,0,0,0,-0.0335,-0.0336,0,-0.0404,-0.0405,-0.0406,-0.0468,-0.0469,-0.047,-0.0471,-0.0537,-0.0538,-0.0539,0,0,0,0,0,0,0,0,0,0,0,0,0,-0.0254,-0.0255,-0.0335,-0.0336,-0.0337,-0.0404,-0.0405,-0.0406,-0.0468,-0.0469,-0.047,-0.0471,-0.0536,-0.0538,-0.0539,0,0,0,0,0,0,0,0,0,0,0,0,0,-0.0302,-0.0255,-0.0335,-0.0376,-0.038,-0.0404,-0.0405,-0.0406,-0.0468,-0.0469,-0.047,-0.0471,-0.0536,-0.0537,-0.0539,-0.0526,0,0,-0.0544,-0.0544,0,0,0,0,0,0,0,0,-0.0299,-0.0305,-0.0369,-0.0373,-0.0378,-0.0429,-0.04,-0.0446,-0.0468,-0.0435,-0.0471,-0.0472,-0.05,-0.0504,-0.0514,-0.0529,-0.0531,-0.0544,-0.0545,-0.0545,-0.0546,0,0,0,0,0,0,0,-0.0296,-0.0302,-0.0362,-0.037,-0.0375,-0.039,-0.0398,-0.0409,-0.046,-0.0438,-0.0442,-0.045,-0.0502,-0.0513,-0.0516,-0.0532,-0.0544,-0.0545,-0.0546,-0.0547,-0.054,-0.0539,0,0,0,0,0,0,-0.0287,-0.0299,-0.036,-0.0364,-0.0341,-0.039,-0.04,-0.0411,-0.046,-0.0468,-0.0449,-0.0453,-0.051,-0.0515,-0.0519,-0.0507,-0.0545,-0.0547,-0.0548,-0.0541,-0.0539,-0.0538,0,0,0,0,0,0,-0.0285,-0.0292,-0.0357,-0.0333,-0.0343,-0.0391,-0.0403,-0.0412,-0.0423,-0.0468,-0.0477,-0.0451,-0.0511,-0.0517,-0.0524,-0.051,-0.0548,-0.0549,-0.0542,-0.054,-0.0539,-0.0481,0,0,0,0,0,0,-0.0282,-0.029,-0.0287,-0.0333,-0.0344,-0.0362,-0.0402,-0.0413,-0.0426,-0.0431,-0.0472,-0.048,-0.0512,-0.0521,-0.0525,-0.0513,-0.055,-0.0543,-0.0541,-0.0539,-0.0485,-0.0478,-0.0472,0,0,0,0,0,-0.0279,-0.0267,-0.0286,-0.0293,-0.034,-0.0361,-0.0367,-0.0405,-0.0424,-0.042,-0.045,-0.0479,-0.0511,-0.0521,-0.0527,-0.0514,-0.0545,-0.0542,-0.0539,-0.0487,-0.0479,-0.0472,0,0,0,0,0,0,-0.0216,-0.0273,-0.0295,-0.0298,-0.0324,-0.0371,-0.0367,-0.0395,-0.0415,-0.0419,-0.0465,-0.0473,-0.0475,-0.0496,-0.0506,-0.0504,-0.0532,-0.053,-0.049,-0.0483,-0.0477,-0.0471,-0.0552,0,0,0,0,0,-0.0202,-0.0216,-0.0265,-0.0262,-0.0274,-0.0318,-0.0329,-0.0356,-0.0385,-0.0396,-0.0426,-0.0451,-0.0467,-0.0476,-0.0493,-0.0489,-0.0498,-0.0482,-0.0476,-0.0471,-0.0468,-0.0467,-0.0461,-0.053,-0.053,-0.053,0,0,-0.0174,-0.0207,-0.0212,-0.025,-0.0274,-0.0285,-0.0327,-0.0338,-0.0346,-0.0397,-0.0406,-0.0429,-0.046,-0.0461,-0.0463,-0.0478,-0.0452,-0.0468,-0.0463,-0.0464,-0.0464,-0.0458,-0.0452,-0.0528,-0.0528,-0.0529,0,0,-0.0128,-0.0155,-0.0156,-0.018,-0.0216,-0.0245,-0.0245,-0.0289,-0.0307,-0.0317,-0.0355,-0.0366,-0.0392,-0.0413,-0.0427,-0.0391,-0.0418,-0.0395,-0.0362,-0.036,-0.0355,-0.035,-0.0337,-0.0332,-0.0393,-0.0393,-0.0393,0,-0.0088,-0.0109,-0.0152,-0.0161,-0.0176,-0.0225,-0.0225,-0.0245,-0.0284,-0.0293,-0.031,-0.0345,-0.0369,-0.0376,-0.0368,-0.0378,-0.0378,-0.039,-0.0352,-0.0348,-0.0344,-0.0332,-0.0327,-0.039,-0.039,-0.039,-0.0391,0,-0.0057,-0.0071,-0.0067,-0.0106,-0.0121,-0.0125,-0.0168,-0.0178,-0.0205,-0.0232,-0.0242,-0.0273,-0.0298,-0.0302,-0.0327,-0.0312,-0.032,-0.0344,-0.0373,-0.0334,-0.0323,-0.0319,-0.0385,-0.0387,-0.0387,-0.0388,0,0,0.0028,-0.0036,-0.0034,-0.0052,-0.0096,-0.0107,-0.0113,-0.0139,-0.0146,-0.0172,-0.0178,-0.02,-0.0223,-0.0239,-0.0267,-0.0266,-0.0235,-0.029,-0.0292,-0.0278,-0.0221,-0.0202,-0.0196,-0.0254,-0.0254,-0.0253,-0.0218,0,0.0067,0.0051,0.0011,0.0008,-0.0005,-0.0052,-0.0058,-0.0085,-0.0111,-0.0125,-0.0154,-0.0169,-0.0198,-0.0208,-0.0209,-0.0239,-0.0224,-0.0242,-0.0259,-0.0259,-0.0249,-0.019,-0.017,-0.0135,-0.0214,-0.0213,-0.0213,0,0.0111,0.0086,0.0081,0.0037,0.003,0.0026,-0.0002,-0.0015,-0.0046,-0.0066,-0.0084,-0.0116,-0.0125,-0.0153,-0.0165,-0.0176,-0.0186,-0.0202,-0.0201,-0.0203,-0.0233,-0.019,-0.0125,-0.0119,-0.0207,-0.0207,-0.0208,0,0.0174,0.014,0.0132,0.0118,0.0066,0.0064,0.0043,0.001,-0.0003,-0.0027,-0.0036,-0.006,-0.0072,-0.0089,-0.0127,-0.0143,-0.0135,-0.0165,-0.015,-0.0149,-0.0145,-0.0144,-0.0079,-0.0152,-0.0152,-0.0152,-0.0153,0,0.0223,0.0222,0.016,0.0156,0.0154,0.0107,0.0107,0.0081,0.0052,0.0042,0.0,-0.0008,-0.0057,-0.007,-0.01,-0.0105,-0.0111,-0.0126,-0.0133,-0.0121,-0.0119,-0.0127,-0.013,-0.0151,-0.0151,-0.0152,-0.0152,0,0.0294,0.0253,0.0241,0.0192,0.018,0.018,0.0139,0.0133,0.0103,0.0092,0.0087,0.0041,0.0023,-0.0017,-0.0045,-0.0065,-0.0063,-0.0077,-0.0052,-0.0057,-0.0039,-0.004,0.0023,0.003,-0.0048,-0.0047,-0.0046,0,0.0328,0.0326,0.0276,0.0266,0.0246,0.023,0.0215,0.017,0.0157,0.012,0.0119,0.0097,0.0077,0.0051,0.0016,-0.0006,-0.0021,0.0003,-0.0024,-0.0012,-0.002,-0.0019,-0.0019,0.001,0.0011,0.0011,0.0012,0,0.0394,0.0373,0.0353,0.0326,0.0309,0.0286,0.0261,0.0255,0.0204,0.0192,0.0172,0.0156,0.0126,0.0105,0.0078,0.0057,0.0026,0.002,0.0023,0.0036,0.005,0.0043,-0.0035,0.002,0.0019,0.0018,0.0018,0.0018,0.0448,0.0444,0.0407,0.0387,0.0362,0.0339,0.0331,0.03,0.0282,0.0253,0.0227,0.021,0.0177,0.0137,0.0117,0.0104,0.0089,0.0092,0.0093,0.0095,0.01,0.0051,0.0098,0.0098,0.0098,0.0098,0.0098,0,0.0512,0.0485,0.0467,0.0432,0.0415,0.0386,0.0356,0.0345,0.0329,0.0301,0.0282,0.0259,0.0238,0.02,0.0176,0.0173,0.0158,0.0168,0.0169,0.0164,0.0115,0.0115,0.018,0.018,0.018,0.018,0.018,0.018,0.0543,0.0534,0.0509,0.0488,0.0461,0.0443,0.0428,0.0407,0.0384,0.036,0.0342,0.0316,0.0284,0.0257,0.0237,0.0227,0.022,0.0235,0.022,0.0175,0.0168,0.016,0.0161,0.0234,0.0234,0.027,0.0271,0.0271]}]]